Simultaneous Nadir Overpasses (SNOs) Predictions

Prediction of SNOs between AQUA and GOES-15 Satellite Orbit:

Table of predicted SNOs for the next 14.0 days since TLE Epoch: 2/29/2020
Index Date Time (AQUA) AQUA Lat,Lon GOES-15 Lat,Lon Distance(km) Time Diff (sec)
1 03/01/2020 09:55:19 -1.06,-125.05 -0.36,-128.44 385.30 80
2 03/01/2020 22:16:44 0.01,-130.25 0.36,-128.46 203.02 80
3 03/03/2020 22:04:33 0.60,-127.28 0.35,-128.45 131.96 80
4 03/04/2020 10:25:49 0.51,-132.44 -0.35,-128.43 456.72 80
5 03/05/2020 21:52:22 1.19,-124.32 0.35,-128.43 466.21 80
6 03/06/2020 10:13:39 -0.14,-129.49 -0.34,-128.40 122.75 80
7 03/08/2020 10:01:28 -0.74,-126.53 -0.34,-128.38 210.80 80
8 03/08/2020 22:22:52 -0.36,-131.72 0.33,-128.39 378.27 80
9 03/10/2020 22:10:41 0.25,-128.76 0.33,-128.36 45.03 80
10 03/12/2020 21:58:30 0.85,-125.79 0.33,-128.33 287.84 80
11 03/13/2020 10:19:46 0.27,-130.95 -0.33,-128.31 300.93 80




NCC Satellite Simultaneous Nadir Overpasses (SNOs) Prediction Service
